Hourly Data Report for October 12, 2014

All times are specified in Local Standard Time (LST). Add 1 hour to adjust for Daylight Saving Time where and when it is observed.

TORONTO INTL A
ONTARIO

43°40'36.000" N
79°37'50.000" W
173.40 m
6158731
71624
YYZ

Download Data

Hourly Data (October 2014)
Hourly Data Report for October 12, 2014
Temp Definition
°C
Dew Point Temp Definition
°C
Rel Hum Definition
%
Wind Dir Definition
10's deg

Wind Spd Definition
km/h
Visibility Definition
km
Stn Press Definition
kPa
Hmdx Definition


Wind Chill Definition


Weather Definition


TIME
00:00 Legend Double Dagger 4.4 0.9 78 24 3 24.1 100.32     LegendNANA
01:00 Legend Double Dagger 4.7 1.4 79 28 5 24.1 100.30     Clear
02:00 Legend Double Dagger 3.9 0.9 81 31 10 24.1 100.29     LegendNANA
03:00 Legend Double Dagger 2.0 -0.1 86 33 10 24.1 100.29     LegendNANA
04:00 Legend Double Dagger 2.4 0.5 87 2 8 24.1 100.33     Clear
05:00 Legend Double Dagger 2.9 0.6 85 36 3 24.1 100.38     LegendNANA
06:00 Legend Double Dagger 2.6 0.3 85 3 3 24.1 100.40     LegendNANA
07:00 Legend Double Dagger 2.6 0.2 84 2 3 24.1 100.42     Clear
08:00 Legend Double Dagger 5.8 1.7 75 36 1 24.1 100.48     LegendNANA
09:00 Legend Double Dagger 8.2 2.5 67 7 4 24.1 100.46     LegendNANA
10:00 Legend Double Dagger 10.2 2.3 58 14 7 24.1 100.47     Mainly Clear
11:00 Legend Double Dagger 10.8 2.4 56 15 10 24.1 100.44     LegendNANA
12:00 Legend Double Dagger 11.3 4.3 62 15 11 24.1 100.39     LegendNANA
13:00 Legend Double Dagger 11.7 3.8 58 12 14 24.1 100.31     Mainly Clear
14:00 Legend Double Dagger 12.1 2.9 53 10 15 24.1 100.24     LegendNANA
15:00 Legend Double Dagger 12.4 1.2 46 11 10 24.1 100.17     LegendNANA
16:00 Legend Double Dagger 12.0 2.8 53 12 11 24.1 100.14     Mainly Clear
17:00 Legend Double Dagger 11.1 3.4 59 12 11 24.1 100.09     LegendNANA
18:00 Legend Double Dagger 9.0 -0.6 51 10 16 24.1 100.08     LegendNANA
19:00 Legend Double Dagger 7.8 -1.7 51 9 7 24.1 100.09     Clear
20:00 Legend Double Dagger 7.4 0.8 63 9 9 24.1 100.06     LegendNANA
21:00 Legend Double Dagger 6.3 0.8 68 5 7 24.1 100.03     LegendNANA
22:00 Legend Double Dagger 6.9 3.5 79 5 7 24.1 99.98     Mainly Clear
23:00 Legend Double Dagger 5.9 3.1 82 2 7 24.1 99.92     LegendNANA

Notes on Data Quality.

Legend

  • E = Estimated
  • M = Missing
  • NA = Not Available
  • ‡ = Partner data that is not subject to review by the National Climate Archives
Date modified: